Tracking 19908 objects as of 19-Oct-2019
HD Live streaming from Space Station
objects crossing your sky now

THORAD DELTA 1 DEB

Track THORAD DELTA 1 DEB now!
10-day predictions


NORAD ID: 8784
Int'l Code: 1974-089DL
Perigee: 1,121.5 km
Apogee: 1,420.3 km
Inclination: 101.1 °
Period: 110.8 minutes
Semi major axis: 7641 km
RCS: 0.0626 m2 (small)
Launch date: November 15, 1974
Source: United States (US)
Launch site: AIR FORCE WESTERN TEST RANGE (AFWTR)

Note: This is SATELLITE DEBRIS
aabbcc
Your satellite tracking list
Your tracking list is empty




NASA's NSSDC Master Catalog

Two Line Element Set (TLE):
1  8784U 74089DL  19290.62069065 -.00004072  00000-0 -12311-1 0  9994
2  8784 101.1209 166.4477 0195490 215.7900 171.9720 12.99566300211877
Source of the keplerian elements: AFSPC